| time (UTC) | temp C | wind direction | speed KPH | gust KPH | rain 1hr cm | rain 24hr cm | rain mn cm | humidity % | barometer mb |
| 20260901123050 | 18 | 0 | 0.0 | 0.0 | 0.00 | 0.03 | 0.00 | 100 | 1013.2 |
| 20260901121548 | 18 | 0 | 0.0 | 0.0 | 0.00 | 0.03 | 0.00 | 100 | 1013.1 |
| 20260901120045 | 19 | 0 | 0.0 | 1.6 | 0.00 | 0.03 | 0.00 | 100 | 1012.9 |
| 20260901114543 | 19 | 0 | 0.0 | 0.0 | 0.00 | 0.03 | 0.00 | 100 | 1012.7 |
| 20260901113043 | 19 | 0 | 0.0 | 0.0 | 0.00 | 0.03 | 0.00 | 100 | 1012.4 |
| 20260901111550 | 18 | 0 | 0.0 | 0.0 | 0.00 | 0.03 | 0.00 | 100 | 1012.3 |
| 20260901110045 | 18 | 0 | 0.0 | 0.0 | 0.00 | 0.03 | 0.00 | 100 | 1012.1 |
| 20260901104544 | 18 | 0 | 0.0 | 0.0 | 0.00 | 0.03 | 0.00 | 100 | 1012.1 |
| 20260901103044 | 18 | 0 | 0.0 | 0.0 | 0.00 | 0.03 | 0.00 | 100 | 1012.1 |
| 20260901101558 | 18 | 0 | 0.0 | 0.0 | 0.00 | 0.03 | 0.00 | 100 | 1012.2 |
| 20260901100050 | 18 | 0 | 0.0 | 0.0 | 0.00 | 0.03 | 0.00 | 100 | 1012.3 |
| 20260901094549 | 18 | 0 | 0.0 | 0.0 | 0.00 | 0.03 | 0.00 | 100 | 1012.5 |
| 20260901093045 | 18 | 0 | 0.0 | 0.0 | 0.00 | 0.03 | 0.00 | 100 | 1012.4 |
| 20260901091553 | 18 | 0 | 0.0 | 0.0 | 0.00 | 0.03 | 0.00 | 100 | 1012.3 |
| 20260901090045 | 18 | 0 | 0.0 | 0.0 | 0.00 | 0.03 | 0.00 | 100 | 1012.4 |
| 20260901084545 | 18 | 0 | 0.0 | 0.0 | 0.00 | 0.03 | 0.00 | 100 | 1012.0 |
| 20260901083046 | 18 | 0 | 0.0 | 0.0 | 0.00 | 0.03 | 0.00 | 100 | 1011.9 |
| 20260901081544 | 18 | 0 | 0.0 | 0.0 | 0.00 | 0.03 | 0.00 | 100 | 1011.9 |
| 20260901080136 | 18 | 0 | 0.0 | 0.0 | 0.00 | 0.03 | 0.00 | 100 | 1011.8 |
| 20260901074546 | 18 | 0 | 0.0 | 0.0 | 0.00 | 0.03 | 0.00 | 100 | 1011.9 |
| 20260901073045 | 18 | 0 | 0.0 | 0.0 | 0.00 | 0.03 | 0.00 | 100 | 1011.7 |
| 20260901071542 | 18 | 0 | 0.0 | 0.0 | 0.00 | 0.03 | 0.00 | 100 | 1011.7 |
| 20260901070045 | 18 | 0 | 0.0 | 0.0 | 0.00 | 0.03 | 0.00 | 100 | 1011.9 |
| 20260901064544 | 18 | 0 | 0.0 | 1.6 | 0.00 | 0.03 | 0.00 | 100 | 1011.8 |
| 20260901063055 | 18 | 0 | 0.0 | 1.6 | 0.00 | 0.03 | 0.00 | 100 | 1011.6 |
| 20260901061600 | 18 | 0 | 0.0 | 1.6 | 0.00 | 0.03 | 0.00 | 100 | 1011.5 |
| 20260901060046 | 18 | 0 | 0.0 | 1.6 | 0.00 | 0.03 | 0.00 | 100 | 1011.7 |
| 20260901054552 | 18 | 0 | 0.0 | 1.6 | 0.00 | 0.03 | 0.00 | 100 | 1011.4 |
| 20260901053041 | 18 | 0 | 0.0 | 0.0 | 0.00 | 0.03 | 0.00 | 100 | 1011.5 |
| 20260901051545 | 18 | 0 | 0.0 | 4.8 | 0.00 | 0.03 | 0.00 | 100 | 1011.4 |
| 20260901050045 | 18 | 220 | 0.0 | 3.2 | 0.00 | 0.03 | 0.00 | 100 | 1011.3 |
| 20260901044606 | 18 | 197 | 1.6 | 3.2 | 0.00 | 0.03 | 0.00 | 100 | 1011.5 |
| 20260901043043 | 18 | 216 | 1.6 | 6.4 | 0.00 | 0.03 | 0.00 | 100 | 1011.4 |
| 20260901041547 | 18 | 229 | 0.0 | 4.8 | 0.00 | 0.03 | 0.00 | 100 | 1011.5 |
| 20260901040057 | 18 | 204 | 1.6 | 3.2 | 0.00 | 0.03 | 0.00 | 100 | 1011.4 |
| 20260901034543 | 18 | 208 | 1.6 | 3.2 | 0.00 | 0.03 | 0.03 | 100 | 1011.3 |
| 20260901033042 | 18 | 214 | 1.6 | 4.8 | 0.00 | 0.03 | 0.03 | 100 | 1011.7 |
| 20260901031544 | 18 | 0 | 0.0 | 3.2 | 0.00 | 0.03 | 0.03 | 100 | 1011.5 |
| 20260901030042 | 18 | 233 | 1.6 | 4.8 | 0.00 | 0.03 | 0.03 | 100 | 1011.8 |
| 20260901024559 | 18 | 0 | 0.0 | 3.2 | 0.00 | 0.03 | 0.03 | 100 | 1012.0 |
| 20260901023048 | 18 | 0 | 0.0 | 3.2 | 0.00 | 0.03 | 0.03 | 100 | 1012.0 |
| 20260901021603 | 18 | 0 | 0.0 | 3.2 | 0.00 | 0.03 | 0.03 | 100 | 1012.2 |
| 20260901020044 | 19 | 215 | 0.0 | 3.2 | 0.00 | 0.03 | 0.03 | 100 | 1012.1 |
| 20260901014551 | 19 | 203 | 0.0 | 3.2 | 0.00 | 0.03 | 0.03 | 100 | 1012.1 |
| 20260901013046 | 19 | 205 | 0.0 | 3.2 | 0.00 | 0.03 | 0.03 | 100 | 1011.8 |
| 20260901011543 | 19 | 224 | 0.0 | 3.2 | 0.00 | 0.03 | 0.03 | 100 | 1012.0 |
| 20260901010045 | 19 | 224 | 0.0 | 3.2 | 0.00 | 0.03 | 0.03 | 100 | 1012.0 |
| 20260901004548 | 19 | 225 | 0.0 | 4.8 | 0.00 | 0.03 | 0.03 | 99 | 1011.8 |
| 20260901003049 | 19 | 0 | 0.0 | 1.6 | 0.00 | 0.03 | 0.03 | 99 | 1011.7 |
| 20260901001545 | 19 | 229 | 0.0 | 3.2 | 0.00 | 0.03 | 0.03 | 99 | 1011.6 |
| 20260901000045 | 19 | 0 | 0.0 | 0.0 | 0.00 | 0.03 | 0.03 | 99 | 1011.4 |
| 20260831234543 | 19 | 0 | 0.0 | 0.0 | 0.00 | 0.03 | 0.03 | 99 | 1011.5 |
| 20260831233042 | 19 | 0 | 0.0 | 1.6 | 0.00 | 0.03 | 0.03 | 98 | 1011.4 |
| 20260831231600 | 20 | 83 | 0.0 | 3.2 | 0.00 | 0.03 | 0.03 | 98 | 1011.7 |
| 20260831230046 | 20 | 0 | 0.0 | 0.0 | 0.00 | 0.03 | 0.03 | 97 | 1011.7 |
| 20260831224611 | 20 | 273 | 0.0 | 1.6 | 0.00 | 0.03 | 0.03 | 97 | 1011.4 |
| 20260831223044 | 20 | 234 | 0.0 | 3.2 | 0.00 | 0.03 | 0.03 | 97 | 1011.5 |
| 20260831221558 | 20 | 0 | 0.0 | 1.6 | 0.00 | 0.03 | 0.03 | 96 | 1011.7 |
| 20260831220048 | 20 | 221 | 0.0 | 3.2 | 0.00 | 0.03 | 0.03 | 96 | 1011.4 |
| 20260831214548 | 20 | 0 | 0.0 | 3.2 | 0.00 | 0.03 | 0.03 | 95 | 1011.4 |
| 20260831213042 | 20 | 245 | 0.0 | 3.2 | 0.00 | 0.03 | 0.03 | 95 | 1011.3 |
| 20260831211601 | 20 | 0 | 0.0 | 1.6 | 0.00 | 0.03 | 0.03 | 95 | 1011.4 |
| 20260831210054 | 20 | 83 | 0.0 | 4.8 | 0.00 | 0.03 | 0.03 | 95 | 1011.8 |
| 20260831204543 | 21 | 89 | 0.0 | 3.2 | 0.00 | 0.03 | 0.03 | 94 | 1011.6 |
| 20260831203045 | 21 | 249 | 0.0 | 3.2 | 0.00 | 0.03 | 0.03 | 94 | 1011.8 |
| 20260831201553 | 20 | 243 | 0.0 | 3.2 | 0.00 | 0.03 | 0.03 | 94 | 1012.0 |
| 20260831200043 | 20 | 0 | 0.0 | 4.8 | 0.00 | 0.03 | 0.03 | 94 | 1012.2 |
| 20260831194554 | 20 | 297 | 0.0 | 6.4 | 0.00 | 0.03 | 0.03 | 96 | 1012.1 |
| 20260831193049 | 20 | 148 | 0.0 | 4.8 | 0.00 | 0.03 | 0.03 | 95 | 1012.3 |
| 20260831191549 | 20 | 153 | 1.6 | 6.4 | 0.00 | 0.03 | 0.03 | 94 | 1012.5 |
| 20260831190047 | 20 | 0 | 0.0 | 4.8 | 0.00 | 0.03 | 0.03 | 95 | 1012.4 |
| 20260831184542 | 20 | 41 | 0.0 | 3.2 | 0.00 | 0.03 | 0.03 | 95 | 1012.4 |
| 20260831183047 | 20 | 0 | 0.0 | 1.6 | 0.00 | 0.03 | 0.03 | 97 | 1012.5 |
| 20260831181544 | 19 | 297 | 0.0 | 3.2 | 0.00 | 0.03 | 0.03 | 97 | 1013.0 |
| 20260831180048 | 20 | 29 | 0.0 | 1.6 | 0.00 | 0.03 | 0.03 | 97 | 1013.2 |
| 20260831174550 | 19 | 0 | 0.0 | 3.2 | 0.00 | 0.03 | 0.03 | 98 | 1013.1 |
| 20260831173047 | 19 | 304 | 0.0 | 4.8 | 0.00 | 0.03 | 0.03 | 99 | 1013.0 |
| 20260831171551 | 19 | 0 | 0.0 | 8.0 | 0.00 | 0.03 | 0.03 | 99 | 1012.9 |
| 20260831170044 | 18 | 0 | 0.0 | 3.2 | 0.00 | 0.03 | 0.03 | 100 | 1012.9 |
| 20260831164549 | 18 | 281 | 0.0 | 6.4 | 0.00 | 0.03 | 0.03 | 100 | 1013.2 |
| 20260831163042 | 18 | 276 | 0.0 | 1.6 | 0.00 | 0.03 | 0.03 | 100 | 1013.1 |
| 20260831161550 | 18 | 315 | 0.0 | 0.0 | 0.00 | 0.03 | 0.03 | 100 | 1013.3 |
| 20260831160046 | 18 | 0 | 0.0 | 3.2 | 0.00 | 0.03 | 0.03 | 100 | 1013.4 |
| 20260831154622 | 18 | 0 | 0.0 | 4.8 | 0.03 | 0.03 | 0.03 | 100 | 1013.7 |
| 20260831153049 | 18 | 53 | 0.0 | 6.4 | 0.03 | 0.03 | 0.03 | 100 | 1013.4 |
| 20260831151606 | 18 | 0 | 0.0 | 4.8 | 0.03 | 0.03 | 0.03 | 100 | 1013.6 |
| 20260831150043 | 18 | 286 | 0.0 | 4.8 | 0.03 | 0.03 | 0.03 | 100 | 1013.8 |
| 20260831144543 | 18 | 292 | 1.6 | 4.8 | 0.00 | 0.00 | 0.00 | 100 | 1013.8 |
| 20260831143042 | 18 | 271 | 0.0 | 4.8 | 0.00 | 0.00 | 0.00 | 100 | 1013.9 |
| 20260831141548 | 18 | 278 | 0.0 | 8.0 | 0.00 | 0.00 | 0.00 | 100 | 1014.0 |
| 20260831140042 | 18 | 268 | 0.0 | 8.0 | 0.00 | 0.00 | 0.00 | 100 | 1014.0 |
| 20260831134549 | 18 | 223 | 0.0 | 12.9 | 0.00 | 0.00 | 0.00 | 100 | 1014.2 |
| 20260831133052 | 18 | 217 | 1.6 | 6.4 | 0.00 | 0.00 | 0.00 | 99 | 1014.1 |
| 20260831131552 | 18 | 275 | 1.6 | 4.8 | 0.00 | 0.00 | 0.00 | 99 | 1014.0 |
| 20260831130057 | 18 | 112 | 1.6 | 6.4 | 0.00 | 0.00 | 0.00 | 99 | 1013.8 |
| 20260831124550 | 18 | 63 | 1.6 | 4.8 | 0.00 | 0.00 | 0.00 | 99 | 1013.4 |